[[{"header":{"parameterUnit":"m.s-1","parameterCategory":1,"la1":30.2991,"la2":30.254,"lo1":-89.0895,"lo2":-89.0444,"dy":0.0017,"dx":0.0017,"nx":28,"ny":28,"refTime":"2024-05-23T21:00:00:Z","depth":0,"parameterNumber":2,"parameterNumberName":"U-component_of_WINDS"},"data":[0,0,0,0,0,0,0,0,0,0,0,0,0,0,0,0,0,0,0,0,0,0,0,0,0,0,0,0,0,0,0,0,0,0,0,0,0,0,0,0,0,0,0,0,0,0,0,0,0,0,0,0,0,0,0,0,0,0,0.7902,0.7903,0,0.7942,0.7943,0.7943,0.7962,0.7962,0.7962,0.7962,0.8005,0.8007,0.8008,0,0,0,0,0,0,0,0,0,0,0,0,0,0.7845,0.7846,0.7902,0.7903,0.7903,0.7942,0.7943,0.7943,0.7962,0.7962,0.7962,0.7962,0.8005,0.8006,0.8008,0,0,0,0,0,0,0,0,0,0,0,0,0,0.7876,0.7846,0.7902,0.7917,0.7919,0.7942,0.7943,0.7943,0.7962,0.7962,0.7962,0.7962,0.8005,0.8006,0.8008,0.802,0,0,0.8013,0.8014,0,0,0,0,0,0,0,0,0.7874,0.7878,0.7915,0.7916,0.7918,0.7947,0.7938,0.7969,0.7962,0.7946,0.7962,0.7962,0.7986,0.799,0.7997,0.8022,0.8024,0.8014,0.8015,0.8015,0.8016,0,0,0,0,0,0,0,0.7872,0.7876,0.7918,0.7915,0.7917,0.7923,0.7927,0.7944,0.7966,0.7947,0.7949,0.7953,0.7987,0.7995,0.7998,0.8024,0.8014,0.8015,0.8016,0.8017,0.8062,0.8062,0,0,0,0,0,0,0.7867,0.7874,0.7917,0.7919,0.7896,0.7924,0.7929,0.7938,0.7966,0.797,0.7953,0.7954,0.7992,0.7996,0.8,0.8016,0.8015,0.8017,0.8018,0.8062,0.8062,0.8062,0,0,0,0,0,0,0.7866,0.7871,0.7915,0.7897,0.7903,0.7925,0.7935,0.7939,0.7947,0.797,0.7974,0.7957,0.7993,0.7997,0.8015,0.8018,0.8018,0.802,0.8062,0.8062,0.8062,0.8048,0,0,0,0,0,0,0.7864,0.787,0.7874,0.7897,0.7904,0.7928,0.7935,0.794,0.795,0.7951,0.7975,0.7979,0.7993,0.8012,0.8017,0.802,0.8021,0.8061,0.8062,0.8062,0.8049,0.8048,0.8048,0,0,0,0,0,0.7862,0.7869,0.7874,0.7879,0.791,0.7929,0.7933,0.7948,0.795,0.7954,0.797,0.7978,0.8017,0.8014,0.8019,0.8023,0.8061,0.8062,0.8062,0.8049,0.8048,0.8048,0,0,0,0,0,0,0.7846,0.7872,0.7878,0.7893,0.7908,0.7932,0.7938,0.7946,0.7962,0.7963,0.7982,0.7987,0.8003,0.8015,0.8011,0.8037,0.804,0.8041,0.8028,0.8028,0.8027,0.8024,0.8022,0,0,0,0,0,0.7844,0.7856,0.7879,0.789,0.7897,0.7916,0.7925,0.7935,0.7952,0.7959,0.7976,0.7993,0.8009,0.8019,0.8035,0.805,0.8057,0.8056,0.8056,0.8055,0.8056,0.8066,0.8067,0.8063,0.8063,0.8063,0,0,0.784,0.7856,0.7863,0.7887,0.79,0.7914,0.7922,0.7935,0.7946,0.7962,0.7979,0.7992,0.8012,0.8029,0.8037,0.8039,0.8059,0.8055,0.8055,0.8056,0.8067,0.8067,0.8067,0.8063,0.8063,0.8063,0,0,0.784,0.7853,0.7864,0.7877,0.7897,0.791,0.7912,0.7935,0.7943,0.7961,0.7973,0.7987,0.8014,0.8028,0.8039,0.8045,0.8054,0.805,0.8047,0.8057,0.8057,0.8058,0.8061,0.8061,0.8051,0.8051,0.8051,0,0.7833,0.7853,0.7868,0.7882,0.7892,0.7907,0.7918,0.7931,0.7955,0.7962,0.7964,0.7999,0.8014,0.8034,0.8036,0.8044,0.8048,0.8047,0.8056,0.8056,0.8057,0.806,0.8061,0.805,0.805,0.805,0.805,0,0.7844,0.7858,0.7865,0.7887,0.7899,0.7911,0.7929,0.7939,0.7948,0.7961,0.7979,0.7998,0.8018,0.8024,0.8033,0.8046,0.8047,0.8052,0.8056,0.8056,0.806,0.8061,0.8049,0.805,0.805,0.805,0,0,0.7835,0.7866,0.7869,0.7879,0.7903,0.7914,0.7928,0.7947,0.7955,0.7972,0.7984,0.8007,0.8012,0.8025,0.8036,0.8044,0.8049,0.8049,0.805,0.8049,0.8066,0.8062,0.8063,0.8055,0.8056,0.8056,0.8064,0,0.7839,0.7863,0.7878,0.7896,0.791,0.7924,0.7936,0.7952,0.7965,0.7979,0.7993,0.8009,0.8014,0.8022,0.8031,0.8047,0.8053,0.8046,0.8068,0.8069,0.8063,0.8065,0.8061,0.8068,0.8066,0.8066,0.8066,0,0.7847,0.7863,0.7882,0.7905,0.7911,0.7921,0.7941,0.7954,0.7973,0.7982,0.7995,0.8007,0.8023,0.8025,0.8048,0.8043,0.8053,0.8062,0.8063,0.8066,0.8068,0.8068,0.807,0.8071,0.8068,0.8068,0.8068,0,0.7839,0.7865,0.7881,0.789,0.7916,0.7923,0.7935,0.7954,0.7965,0.7982,0.7989,0.8008,0.8019,0.8034,0.805,0.805,0.8072,0.8075,0.8081,0.808,0.8085,0.8084,0.8089,0.809,0.809,0.809,0.809,0,0.7842,0.7854,0.7878,0.7887,0.7901,0.7918,0.7932,0.7945,0.7962,0.7975,0.7988,0.8001,0.8022,0.8037,0.805,0.8068,0.8072,0.808,0.8084,0.8079,0.8078,0.8086,0.8087,0.809,0.809,0.809,0.809,0,0.7836,0.7852,0.787,0.7894,0.79,0.791,0.793,0.7941,0.7954,0.7971,0.7975,0.7997,0.8015,0.8033,0.8058,0.8067,0.8085,0.8089,0.8078,0.808,0.8085,0.8084,0.8095,0.8098,0.8097,0.8096,0.8096,0,0.7837,0.7846,0.7871,0.7881,0.7892,0.7907,0.7918,0.7935,0.7947,0.797,0.7977,0.7997,0.8013,0.8043,0.8061,0.808,0.8086,0.8088,0.8089,0.8084,0.8087,0.8086,0.8087,0.8088,0.8088,0.8088,0.8087,0,0.7838,0.7845,0.7861,0.7879,0.7892,0.7907,0.7923,0.7931,0.7951,0.7964,0.7982,0.7995,0.8021,0.804,0.8062,0.8075,0.8085,0.8087,0.8089,0.8085,0.8079,0.8083,0.8078,0.8087,0.8087,0.8087,0.8087,0.8087,0.7836,0.7845,0.7864,0.7881,0.7895,0.7909,0.7921,0.7935,0.7951,0.7973,0.7982,0.8002,0.8022,0.8052,0.8065,0.8081,0.8083,0.8086,0.8087,0.8088,0.8087,0.8076,0.8085,0.8085,0.8085,0.8085,0.8085,0,0.7837,0.785,0.7866,0.7888,0.7901,0.7909,0.7927,0.7938,0.7955,0.7972,0.7988,0.801,0.803,0.8049,0.807,0.8079,0.8084,0.8084,0.8084,0.8087,0.8084,0.808,0.8079,0.8079,0.8079,0.8079,0.8079,0.8079,0.784,0.7856,0.7867,0.7891,0.7904,0.7922,0.7932,0.7946,0.796,0.7984,0.8,0.8013,0.8032,0.8054,0.8072,0.8077,0.8085,0.8083,0.809,0.8087,0.8087,0.8087,0.8084,0.8084,0.8084,0.8092,0.8092,0.8092]},{"header":{"parameterUnit":"m.s-1","parameterCategory":1,"la1":30.2991,"la2":30.254,"lo1":-89.0895,"lo2":-89.0444,"dy":0.0017,"dx":0.0017,"nx":28,"ny":28,"refTime":"2024-05-23T21:00:00:Z","depth":0,"parameterNumber":3,"parameterNumberName":"V-component_of_WINDS"},"data":[0,0,0,0,0,0,0,0,0,0,0,0,0,0,0,0,0,0,0,0,0,0,0,0,0,0,0,0,0,0,0,0,0,0,0,0,0,0,0,0,0,0,0,0,0,0,0,0,0,0,0,0,0,0,0,0,0,0,5.0822,5.0822,0,5.0807,5.0806,5.0806,5.0814,5.0814,5.0815,5.0815,5.0794,5.0793,5.0792,0,0,0,0,0,0,0,0,0,0,0,0,0,5.0856,5.0855,5.0822,5.0822,5.0822,5.0807,5.0806,5.0806,5.0814,5.0814,5.0815,5.0815,5.0794,5.0793,5.0792,0,0,0,0,0,0,0,0,0,0,0,0,0,5.0841,5.0855,5.0822,5.0824,5.0824,5.0807,5.0806,5.0806,5.0814,5.0814,5.0815,5.0816,5.0795,5.0793,5.0792,5.077,0,0,5.0788,5.0787,0,0,0,0,0,0,0,0,5.0842,5.084,5.0824,5.0824,5.0824,5.0813,5.0811,5.0794,5.0814,5.0818,5.0815,5.0816,5.08,5.0798,5.0793,5.0769,5.0769,5.0788,5.0787,5.0786,5.0786,0,0,0,0,0,0,0,5.0843,5.084,5.0816,5.0824,5.0824,5.0825,5.0823,5.0807,5.0805,5.0817,5.0818,5.0816,5.08,5.0795,5.0793,5.0768,5.0788,5.0786,5.0785,5.0785,5.0728,5.0727,0,0,0,0,0,0,5.0844,5.0841,5.0817,5.0816,5.0835,5.0824,5.0822,5.0816,5.0805,5.0804,5.0816,5.0817,5.0797,5.0795,5.0792,5.0767,5.0786,5.0785,5.0784,5.0729,5.0728,5.0727,0,0,0,0,0,0,5.0845,5.0842,5.0817,5.0829,5.0825,5.0822,5.0815,5.0815,5.081,5.0804,5.0803,5.0811,5.0797,5.0794,5.0777,5.0767,5.0784,5.0783,5.0729,5.0728,5.0727,5.0717,0,0,0,0,0,0,5.0846,5.0842,5.0835,5.0828,5.0825,5.0803,5.0815,5.0814,5.0808,5.0809,5.08,5.0799,5.0797,5.0779,5.0775,5.0765,5.0782,5.073,5.0729,5.0728,5.0718,5.0716,5.0714,0,0,0,0,0,5.0847,5.0831,5.0834,5.0831,5.0815,5.0802,5.08,5.08,5.0808,5.0799,5.0796,5.0799,5.0769,5.0777,5.0773,5.0762,5.0731,5.0729,5.0728,5.0719,5.0716,5.0714,0,0,0,0,0,0,5.0833,5.083,5.0833,5.0815,5.0809,5.0804,5.0793,5.0797,5.0787,5.0789,5.0788,5.0786,5.0768,5.0763,5.0773,5.0742,5.0751,5.0748,5.0745,5.0743,5.074,5.0742,5.078,0,0,0,0,0,5.0829,5.0819,5.0816,5.08,5.0797,5.0796,5.079,5.0791,5.0784,5.0781,5.0776,5.0768,5.0757,5.075,5.0739,5.0718,5.0716,5.0709,5.0706,5.0705,5.0702,5.0692,5.0689,5.0722,5.0722,5.0722,0,0,5.0818,5.0815,5.0808,5.0797,5.0793,5.0783,5.0793,5.0782,5.0774,5.0779,5.0763,5.0759,5.075,5.0731,5.0723,5.0727,5.0693,5.0703,5.0701,5.07,5.069,5.0687,5.0685,5.0721,5.0721,5.0722,0,0,5.0793,5.079,5.0777,5.0773,5.0767,5.0767,5.0764,5.0758,5.0757,5.0741,5.0745,5.0735,5.0716,5.071,5.0704,5.068,5.0683,5.0677,5.0665,5.0655,5.0652,5.065,5.0642,5.0639,5.0675,5.0675,5.0675,0,5.078,5.0766,5.0769,5.0758,5.0753,5.076,5.0747,5.0742,5.0732,5.0728,5.0734,5.0711,5.0705,5.0686,5.0681,5.0676,5.0672,5.0677,5.0653,5.065,5.0648,5.0641,5.0637,5.0674,5.0674,5.0674,5.0674,0,5.075,5.0741,5.0731,5.0724,5.0718,5.0705,5.0706,5.07,5.0702,5.0701,5.0685,5.068,5.0669,5.0664,5.0665,5.0645,5.0648,5.0653,5.0662,5.0644,5.0637,5.0634,5.0673,5.0673,5.0673,5.0674,0,0,5.0714,5.0712,5.0708,5.0706,5.0701,5.0693,5.0681,5.0673,5.0667,5.0661,5.0651,5.0636,5.0641,5.0635,5.0635,5.0627,5.0609,5.0633,5.0633,5.0629,5.0588,5.0584,5.0581,5.0612,5.0611,5.0611,5.0589,0,5.069,5.0671,5.0675,5.0656,5.0647,5.0655,5.0645,5.0641,5.064,5.0632,5.063,5.062,5.0627,5.0624,5.0616,5.0613,5.0601,5.0615,5.0602,5.0601,5.0604,5.0577,5.0573,5.0552,5.0586,5.0586,5.0585,0,5.0658,5.0653,5.0634,5.0633,5.0629,5.062,5.0614,5.0606,5.0601,5.0602,5.0596,5.0599,5.0587,5.0597,5.0581,5.059,5.0585,5.0583,5.0582,5.0581,5.0592,5.0575,5.0546,5.0543,5.0581,5.0581,5.0581,0,5.0635,5.0623,5.0611,5.0608,5.0606,5.06,5.0598,5.0595,5.059,5.0584,5.0581,5.0573,5.0568,5.0561,5.0562,5.0569,5.0546,5.0555,5.0545,5.0545,5.0539,5.0539,5.0509,5.0536,5.0536,5.0536,5.0536,0,5.0606,5.0594,5.0601,5.0593,5.058,5.0585,5.0571,5.0571,5.0568,5.056,5.0565,5.0557,5.0559,5.0551,5.0551,5.0538,5.0536,5.0535,5.0535,5.0535,5.0535,5.0531,5.0532,5.0535,5.0535,5.0536,5.0536,0,5.0577,5.0581,5.0568,5.0568,5.0568,5.0559,5.0558,5.0551,5.0552,5.0542,5.054,5.054,5.0531,5.0532,5.0521,5.0521,5.0505,5.0507,5.0507,5.0508,5.0498,5.0499,5.0463,5.0459,5.0489,5.0489,5.0489,0,5.0559,5.0551,5.0551,5.0547,5.0546,5.0539,5.0535,5.054,5.0535,5.0531,5.0524,5.0516,5.051,5.0496,5.0494,5.0487,5.0488,5.0477,5.0487,5.0487,5.0488,5.0489,5.0489,5.0474,5.0474,5.0473,5.0473,0,5.0527,5.053,5.0524,5.0521,5.0516,5.0513,5.051,5.0506,5.051,5.0505,5.0497,5.0493,5.0483,5.0476,5.0469,5.0466,5.047,5.047,5.0468,5.0467,5.0468,5.0468,5.0502,5.0471,5.0471,5.0471,5.0471,5.0471,5.0503,5.0496,5.0496,5.0491,5.049,5.0487,5.0481,5.0482,5.0476,5.0471,5.0473,5.0465,5.0462,5.0453,5.0451,5.0444,5.0448,5.0443,5.0442,5.0441,5.044,5.0469,5.0442,5.0442,5.0442,5.0442,5.0442,0,5.0471,5.0472,5.0467,5.0464,5.046,5.0467,5.0464,5.046,5.0453,5.0451,5.0446,5.0438,5.0431,5.043,5.0424,5.0418,5.042,5.0416,5.0416,5.0416,5.0437,5.044,5.0415,5.0415,5.0415,5.0415,5.0415,5.0415,5.0454,5.0444,5.0447,5.0437,5.0437,5.0431,5.0429,5.0427,5.0425,5.0417,5.0412,5.0412,5.0411,5.0405,5.0399,5.0399,5.0396,5.0392,5.0392,5.0412,5.0414,5.0417,5.042,5.0391,5.0391,5.0372,5.0372,5.0372]}]]